www.pogodaiklimat.ru

Погода и климат >> Архив погоды >> Сирия >> Дамаск


АРХИВ ПОГОДЫ в Дамаске

Время (UTC), дата Ветер
(напр.,м/с)
 
Видим.   Явления Облачность Т
(С)
Тd
(С)
f
(%)
Тe
(С)
Тes
(С)
Комфортность P
(гПа)
Po
(гПа)
Тmin
(С)
Tmax
(С)
R
(мм)
R24
(мм)
S
(см)
15 13.09 Ю 1 15 км ясно +32.5 +12.0 29 +33 +33 жарко 1005.9 939.0
18 13.09 Ю 5 15 км ясно +27.0 +14.1 45 +29 +29 жарко 1006.1 939.0 +33.2
06 14.09 ЮЗ 5 15 км ясно +21.5 +17.6 78 +26 +29 душно 1007.4 940.2 +18.0
09 14.09 штиль 0 15 км ясно +30.4 +12.4 33 +31 +52 опасность
солнечного
удара
1006.0 939.2
12 14.09 З 2 15 км ясно +36.0 +8.5 19 +34 +45 очень
жарко
1004.0 937.8
15 14.09 ЮЗ 5 15 км ясно +32.6 +11.6 28 +33 +33 жарко 1003.5 936.8
18 14.09 ЮЗ 2 15 км ясно +25.4 +15.9 56 +29 +29 душно 1006.2 938.8 +36.0
03 15.09 ЮЗ 3 15 км ясно +18.6 +16.7 89 +20 +20 по сезону 1005.7 938.8
06 15.09 ЮЗ 5 15 км ясно +22.4 +16.0 67 +27 +30 душно 1007.5 940.2 +18.4
09 15.09 ЮЗ 4 15 км ясно +30.0 +11.8 33 +31 +41 жарко 1006.5 939.8
12 15.09 ЮЗ 7 15 км ясно +31.0 +10.9 29 +31 +34 жарко 1005.5 939.1
15 15.09 ЮЗ 6 15 км 1/1 800 м
[Cu hum]
+28.6 +6.5 25 +28 +28 жарко 1006.5 939.1
18 15.09 ЮЗ 2 15 км ясно +24.0 +12.1 47 +26 +26 жарко 1008.5 930.9 +32.2
21 15.09 ЮЗ 3 15 км ясно +20.0 +13.2 65 +22 +22 комфорт 1008.2 941.1
00 16.09 ЮЗ 2 15 км ясно +20.0 +15.1 73 +23 +23 комфорт 1007.2 940.2
03 16.09 ЮЗ 4 15 км ясно +19.0 +15.7 81 +20 +20 тепло 1009.1 941.4
06 16.09 Ю 7 15 км ясно +21.6 +17.6 78 +26 +27 душно 1010.5 942.7 +18.8
09 16.09 З 4 15 км 3/3 900 м
[Cu hum]
+27.4 +12.7 40 +29 +36 жарко 1010.2 942.7
12 16.09 ЮЗ 4 15 км 4/4 900 м
[Cu hum]
+31.6 +11.3 29 +32 +36 жарко 1008.6 941.6
15 16.09 ЮЗ 8 15 км ясно +28.7 +13.3 39 +30 +30 жарко 1008.9 941.5
18 16.09 ЮЗ 2 15 км ясно +23.5 +13.2 52 +26 +26 жарко 1010.8 943.0 +31.5
21 16.09 штиль 0 н/о +20.9 -11.9 10 +20 +20 по сезону 1010.6 943.4
00 17.09 ЮЗ 3 15 км ясно +19.4 +15.4 78 +21 +21 комфорт 1010.7 943.5
03 17.09 СЗ 2 15 км ясно +14.3 +10.7 79 +14 +14 холодно 1012.1 944.0
09 17.09 СЗ 2 10 км ясно +29.1 +9.5 29 +29 +44 жарко 1012.5 944.3
12 17.09 З 2 10 км ясно +33.2 +3.7 16 +31 +41 жарко 1011.5 942.5
15 17.09 Ю 3 10 км ясно +32.2 +1.4 14 +29 +30 жарко 1009.6 942.2
18 17.09 З 3 10 км ясно +24.4 +3.6 26 +24 +24 комфорт 1011.6 943.6 +34.2
21 17.09 ЮВ 1 н/о +20.0 +6.1 40 +22 +22 комфорт 1012.2 944.2
03 18.09 С 2 10 км ясно +12.0 +3.2 55 +11 +11 очень
холодно
1013.2 945.1
06 18.09 С 2 10 км ясно +21.8 +8.2 42 +23 +28 комфорт 1015.2 947.1 +11.2
09 18.09 В 2 10 км ясно +30.4 +6.2 22 +29 +44 жарко 1013.7 946.2
12 18.09 СЗ 2 10 км ясно +34.4 +4.0 15 +32 +42 жарко 1011.4 944.1
15 18.09 СЗ 2 10 км ясно +33.7 +5.3 17 +31 +32 жарко 1010.7 943.3
06 19.09 С 2 10 км ясно +26.2 +4.0 24 +25 +31 комфорт 1012.2 945.1 +19.0
09 19.09 С 2 10 км ясно +34.2 +5.2 16 +32 +47 жарко 1010.8 944.3
12 19.09 З 3 10 км ясно +37.8 +5.1 13 +35 +43 очень
жарко
1008.6 942.3
15 19.09 ЮЗ 5 10 км ясно +37.6 +3.1 12 +34 +35 очень
жарко
1008.1 941.6
18 19.09 Ю 3 10 км ясно +27.2 +4.8 24 +26 +26 жарко 1009.1 942.6 +39.0
21 19.09 Ю 3 10 км ясно +26.1 +12.9 44 +28 +28 жарко 1009.7 943.0
00 20.09 З 3 10 км ясно +21.9 +14.0 61 +25 +25 комфорт 1009.3 942.2
03 20.09 Ю 2 10 км ясно +19.1 +12.6 66 +21 +21 комфорт 1009.5 942.2
06 20.09 ЮЗ 3 10 км ясно +25.0 +16.6 60 +29 +33 душно 1009.9 942.9 +19.0
09 20.09 Ю 1 15 км ясно +34.4 +16.0 33 +37 +54 опасность
солнечного
удара
1007.9 941.9

 

Местоположение метеостанции Дамаск (Сирия): широта 33.42 долгота 36.52 высота над уровнем моря 609 м.

В архиве по умолчанию представлена погода в Дамаске за последнюю неделю. Архивные данные за месяц целиком и за предыдущие месяцы, начиная с января 2011 года, Вы можете получить, выбрав интересующий диапазон дат из раскрывающегося списка и нажав кнопку "Ввод!".


*Определитесь, кто Вы:
робот инопланетянин человек

Внимание! Время в таблицах - всемирное. Для получения местного времени необходимо прибавить поправку, которая равна 2 ч.

Смотрите также архив погоды в соседних городах и на ближайших метеорологических станциях:

Погода в Эн-Набке (Сирия) (70 км)
Погода в Хоуч-аль-Омаре (Ливан) (76 км)
Погода в Даръа (Сирия) (99 км)
Погода в Бейруте (Ливан) (105 км)
Погода в Цфате (Израиль) (107 км)
Погода в Ирбиде (Иордания) (115 км)
Погода в Эль-Мафраке (Иордания) (119 км)
Погода в Капернауме (Израиль) (124 км)
Погода в Триполи (Ливан) (131 км)
Погода в Рош-ха-Никра (Израиль) (136 км)

Пояснения к столбцам:

Ветер - указаны скорость ветра в м/с - средняя за 10 мин, порывы в срок и между сроками (в фигурных скобках) и направление, откуда дует ветер: С - северный, СВ - северо-восточный, В - восточный, ЮВ - юго-восточный, Ю - южный, ЮЗ - юго-западный, З - западный, СЗ - северо-западный.
Видимость - горизонтальная дальность видимости в метрах или километрах. При видимости от 1 до 10 км при отсутствии осадков обычно наблюдается дымка, при ухудшении видимости до 1 км и менее - туман. В сухую погоду видимость может ухудшаться дымом, пылью или мглою.
Явления - указаны атмосферные явления, наблюдавшиеся в срок или в последний час перед сроком; фигурными скобками обозначены явления, наблюдавшиеся между сроками (за 1-3 часа до срока); квадратными скобками обозначены град или гололедные отложения с указанием их диаметра в мм.
Облачность - указаны через наклонную черту общая и нижняя облачность в баллах и высота нижней границы облаков в метрах; квадратными скобками обозначены формы облаков: Ci - перистые, Cs - перисто-слоистые, Cc - перисто-кучевые, Ac - высококучевые, As - высокослоистые, Sc - слоисто-кучевые, Ns - слоисто-дождевые, Cu - кучевые, Cb - кучево-дождевые. Подробнее классификацию облаков см. в Атласе облаков (PDF).
T - Температура воздуха - температура, измеренная на высоте 2 м над землей.
Td - Температура точки росы - температура, при понижении до которой содержащийся в воздухе водяной пар достигнет насыщения.
f - Относительная влажность воздуха - влажноcть воздуха, измеренная на высоте 2 м над землей.
Te - Эффективная температура - температура, которую ощущает одетый по сезону человек в тени. Характеристика душности погоды. При расчете учитывается влияние влажности воздуха и скорости ветра на теплоощущения человека.
Tes - Эффективная температура на солнце - температура, которую ощущает человек, с поправкой на солнечный нагрев. Характеристика знойности погоды. Зависит от высоты солнца над горизонтом, облачности и скорости ветра. Ночью, в пасмурную погоду, а также при ветре 12 м/с и более поправка равна нулю.
P - Атмосферное давление - приведенное к уровню моря атмосферное давление.
Po - Атмосферное давление - измеренное на уровне метеостанции атмосферное давление.
Tmin - Минимальная температура - минимум температуры воздуха на высоте 2 м над землей.
Tmax - Максимальная температура - максимум температуры воздуха на высоте 2 м над землей.
R - Количество осадков - Количество выпавших осадков за период времени, мм. При наведении курсора мыши на число - период времени, за который выпало указанное количество осадков.
R24 - Количество осадков - Количество выпавших осадков за 24 часа, мм.
S - Снежный покров - Высота снежного покрова, см. При наведении курсора мыши на число - состояние снежного покрова и степень покрытия местности в баллах.